FW1761 Weather Reports


time (UTC)temp
F
wind
direction
speed
knots
gust
knots
rain 1hr
in
rain 24hr
in
rain mn
in
humidity
%
barometer
mb
20260503050048 48 0.0 0.0 0.00 0.00 0.00 30 1012.0
20260503044544 49 0.0 0.0 0.00 0.00 0.00 29 1012.3
20260503043039 50 0.0 0.0 0.00 0.00 0.00 29 1012.3
20260503041536 50 0.0 0.0 0.00 0.00 0.00 28 1012.3
20260503040030 51 0.0 0.0 0.00 0.00 0.00 27 1012.2
20260503034528 52 0.0 0.0 0.00 0.00 0.00 27 1012.2
20260503033027 53 0.0 0.0 0.00 0.00 0.00 25 1012.3
20260503031518 54 0.0 0.0 0.00 0.00 0.00 23 1012.2
20260503030014 55 0.0 0.0 0.00 0.00 0.00 22 1012.3
20260503024512 57 0.0 0.0 0.00 0.00 0.00 23 1012.3
20260503023004 59 0.0 0.0 0.00 0.00 0.00 22 1012.1
20260503021602 60 0.0 0.0 0.00 0.00 0.00 21 1012.1
20260503020059 62 0.0 0.0 0.00 0.00 0.00 17 1012.1
20260503014621 64 0.0 0.0 0.00 0.00 0.00 15 1011.8
20260503013048 65 0.0 0.0 0.00 0.00 0.00 13 1011.7
20260503011550 66 0.0 0.0 0.00 0.00 0.00 12 1011.5
20260503010049 67 0.0 0.0 0.00 0.00 0.00 11 1011.4
20260503004537 68 0.0 0.0 0.00 0.00 0.00 11 1011.4
20260503003030 68 0.0 0.0 0.00 0.00 0.00 12 1011.4
20260503001527 69 0.0 0.0 0.00 0.00 0.00 11 1011.6
20260503000022 69 0.0 0.0 0.00 0.00 0.00 12 1011.8
20260502234517 69 0.0 0.0 0.00 0.00 0.00 12 1011.8
20260502233014 70 0.0 0.0 0.00 0.00 0.00 11 1011.9
20260502231508 70 0.0 0.0 0.00 0.00 0.00 12 1012.0
20260502230005 70 0.0 0.0 0.00 0.00 0.00 12 1012.2
20260502224614 70 0.0 0.0 0.00 0.00 0.00 11 1012.1
20260502223056 70 0.0 0.0 0.00 0.00 0.00 12 1012.2
20260502221552 71 0.0 0.0 0.00 0.00 0.00 12 1012.6
20260502220047 71 0.0 0.0 0.00 0.00 0.00 12 1012.6
20260502214542 72 0.0 0.0 0.00 0.00 0.00 12 1012.9
20260502213038 72 0.0 0.0 0.00 0.00 0.00 12 1013.4
20260502211541 73 0.0 0.0 0.00 0.00 0.00 13 1013.7
20260502210037 74 0.0 0.0 0.00 0.00 0.00 12 1013.9
20260502204525 75 0.0 0.0 0.00 0.00 0.00 12 1014.0
20260502203020 74 0.0 0.0 0.00 0.00 0.00 13 1014.2
20260502201516 72 0.0 0.0 0.00 0.00 0.00 13 1014.4
20260502200015 72 0.0 0.0 0.00 0.00 0.00 15 1014.6
20260502194507 75 0.0 0.0 0.00 0.00 0.00 13 1014.9
20260502193003 75 0.0 0.0 0.00 0.00 0.00 14 1015.2
20260502191603 73 0.0 0.0 0.00 0.00 0.00 15 1015.3
20260502190057 73 0.0 0.0 0.00 0.00 0.00 15 1015.6
20260502184556 72 0.0 0.0 0.00 0.00 0.00 15 1015.9
20260502183057 71 0.0 0.0 0.00 0.00 0.00 15 1016.1
20260502181545 71 0.0 0.0 0.00 0.00 0.00 15 1016.3
20260502163020 65 0.0 0.0 0.00 0.00 0.00 20 1017.7
20260502161508 63 0.0 0.0 0.00 0.00 0.00 20 1018.0
20260502151600 57 0.0 0.0 0.00 0.00 0.00 32 1018.6
20260502123005 33 0.0 0.0 0.00 0.00 0.00 67 1019.2
20260502121558 33 0.0 0.0 0.00 0.00 0.00 66 1019.0
20260502114604 34 0.0 0.0 0.00 0.00 0.00 63 1019.0
20260502113048 34 0.0 0.0 0.00 0.00 0.00 63 1018.9
20260502111539 35 0.0 0.0 0.00 0.00 0.00 62 1018.9
20260502110037 35 0.0 0.0 0.00 0.00 0.00 62 1018.9
20260502104532 36 0.0 0.0 0.00 0.00 0.00 62 1018.8
20260502103033 36 0.0 0.0 0.00 0.00 0.00 60 1018.9
20260502101541 36 0.0 0.0 0.00 0.00 0.00 57 1018.9
20260502091505 37 0.0 0.0 0.00 0.00 0.00 55 1018.5
20260502090114 38 0.0 0.0 0.00 0.00 0.00 54 1018.7
20260502071530 42 0.0 0.0 0.00 0.00 0.00 48 1019.3
20260502070043 43 0.0 0.0 0.00 0.00 0.00 45 1019.4
20260502064521 44 0.0 0.0 0.00 0.00 0.00 44 1019.5
20260502063016 45 0.0 0.0 0.00 0.00 0.00 43 1019.4
20260502061513 46 0.0 0.0 0.00 0.00 0.00 43 1019.5
20260502060011 46 0.0 0.0 0.00 0.00 0.00 42 1019.4
20260502054503 47 0.0 0.0 0.00 0.00 0.00 42 1019.5
20260502053059 47 0.0 0.0 0.00 0.00 0.00 42 1019.4
20260502051626 48 0.0 0.0 0.00 0.00 0.00 41 1019.4